Location: Endfield
(51.6667°N, 0.0667°W)
Time: 23:44:49
(UTC+00:00)

DX 1 - Visible Passes

Search period start: 15 September 2024 00:00
Search period end: 25 September 2024 00:00
Orbit: 606 x 617 km, 98.3° (Epoch: 15 September)

Date Brightness Start Highest point End Pass type
(mag) Time Alt. Az. Time Alt. Az. Time Alt. Az.
15 Sep ? 01:10:54 10° N 01:12:36 22° N 01:12:36 22° N visible
15 Sep ? 23:49:53 10° NE 23:50:18 12° NE 23:50:18 12° NE visible
16 Sep ? 01:25:39 10° N 01:27:17 21° NNW 01:27:17 21° NNW visible
17 Sep ? 00:04:18 10° NNE 00:04:58 14° NNE 00:04:58 14° NNE visible
17 Sep ? 01:40:25 10° N 01:41:56 19° NNW 01:41:56 19° NNW visible
18 Sep ? 00:18:46 10° NNE 00:19:37 15° NNE 00:19:37 15° NNE visible
18 Sep ? 01:55:15 10° N 01:56:35 16° NNW 01:56:35 16° NNW visible
19 Sep ? 00:33:17 10° NNE 00:34:15 17° NNE 00:34:15 17° NNE visible
19 Sep ? 02:10:11 10° NNW 02:11:14 14° NNW 02:11:14 14° NNW visible
20 Sep ? 00:47:51 10° NNE 00:48:53 17° NNE 00:48:53 17° NNE visible
20 Sep ? 02:25:16 10° NNW 02:25:51 12° NNW 02:25:51 12° NNW visible
21 Sep ? 01:02:26 10° N 01:03:30 17° N 01:03:30 17° N visible
22 Sep ? 01:17:04 10° N 01:18:06 17° N 01:18:06 17° N visible
23 Sep ? 01:31:45 10° N 01:32:41 16° N 01:32:41 16° N visible
24 Sep ? 00:10:14 10° NNE 00:10:18 10° NNE 00:10:18 10° NNE visible
24 Sep ? 01:46:27 10° N 01:47:16 14° NNW 01:47:16 14° NNW visible
